QPF
0.00 0.00 0.00 0.00 0.00 0.00 0.00 0.00 0.00 0.00 0.00 0.00 0.00 0.00 0.00 0.00 0.00 0.00 0.00 0.00 0.00 0.00 0.00 0.00 0.00 0.01 0.01 0.01 0.01 0.00 0.00 0.00 0.00 0.00 0.00 0.00 0.00 0.00 0.00 0.00 0.01 0.01 0.02 0.01 0.01 0.00 0.00 0.00 0.00
0.00 0.00 0.00 0.00 0.00 0.00 0.00 0.00 0.00 0.00 0.00 0.00 0.00 0.00 0.00 0.00 0.00 0.00 0.00 0.00 0.00 0.00 0.00 0.00 0.00 0.00 0.00 0.00 0.00 0.00 0.00 0.00 0.00 0.00 0.00 0.00 0.00 0.00 0.00 0.00 0.01 0.01 0.02 0.01 0.01 0.00 0.00 0.00 0.00
0.00 0.00 0.00 0.00 0.00 0.00 0.00 0.00 0.00 0.00 0.00 0.00 0.00 0.00 0.00 0.00 0.00 0.00 0.00 0.00 0.00 0.00 0.00 0.00 0.00 0.00 0.00 0.00 0.00 0.00 0.00 0.00 0.00 0.00 0.00 0.00 0.00 0.00 0.00 0.00 0.00 0.01 0.01 0.01 0.00 0.00 0.00 0.00 0.00
0.00 0.00 0.00 0.00 0.00 0.00 0.00 0.00 0.00 0.00 0.00 0.00 0.00 0.01 0.00 0.00 0.00 0.00 0.00 0.00 0.00 0.00 0.00 0.00 0.00 0.00 0.00 0.00 0.00 0.00 0.00 0.00 0.00 0.00 0.00 0.00 0.00 0.00 0.00 0.00 0.00 0.00 0.00 0.00 0.00 0.00 0.00 0.00 0.00
0.00 0.00 0.00 0.00 0.00 0.00 0.00 0.00 0.00 0.00 0.00 0.00 0.00 0.01 0.01 0.00 0.00 0.00 0.00 0.00 0.00 0.00 0.00 0.00 0.00 0.00 0.00 0.00 0.00 0.00 0.00 0.00 0.00 0.00 0.00 0.00 0.00 0.00 0.00 0.00 0.00 0.00 0.00 0.00 0.00 0.01 0.01 0.00 0.00
0.00 0.00 0.00 0.00 0.00 0.00 0.00 0.00 0.00 0.00 0.00 0.00 0.01 0.01 0.01 0.00 0.00 0.00 0.00 0.00 0.00 0.00 0.00 0.00 0.00 0.00 0.00 0.00 0.00 0.00 0.00 0.00 0.00 0.00 0.00 0.00 0.00 0.00 0.00 0.00 0.00 0.00 0.00 0.01 0.01 0.01 0.00 0.00 0.00
0.00 0.00 0.00 0.00 0.00 0.00 0.00 0.00 0.00 0.00 0.00 0.00 0.01 0.01 0.01 0.00 0.00 0.00 0.00 0.00 0.00 0.00 0.00 0.00 0.00 0.00 0.00 0.00 0.00 0.00 0.00 0.00 0.00 0.00 0.00 0.00 0.00 0.00 0.01 0.01 0.01 0.01 0.01 0.01 0.00 0.00 0.00 0.00 0.00
0.00 0.00 0.00 0.00 0.00 0.00 0.00 0.00 0.00 0.00 0.00 0.00 0.00 0.00 0.00 0.00 0.00 0.00 0.00 0.00 0.00 0.00 0.00 0.00 0.00 0.00 0.00 0.00 0.00 0.00 0.00 0.00 0.00 0.00 0.00 0.00 0.00 0.00 0.01 0.01 0.01 0.01 0.00 0.00 0.00 0.00 0.00 0.00 0.00
0.00 0.00 0.00 0.00 0.00 0.00 0.01 0.01 0.01 0.01 0.00 0.00 0.00 0.00 0.00 0.00 0.00 0.00 0.00 0.00 0.00 0.00 0.00 0.00 0.00 0.00 0.00 0.00 0.00 0.00 0.00 0.00 0.00 0.00 0.00 0.00 0.00 0.00 0.00 0.00 0.00 0.00 0.00 0.00 0.00 0.00 0.00 0.00 0.00
0.00 0.00 0.00 0.00 0.00 0.00 0.01 0.01 0.02 0.01 0.00 0.00 0.00 0.00 0.00 0.00 0.00 0.00 0.00 0.00 0.00 0.00 0.00 0.00 0.00 0.00 0.00 0.00 0.00 0.00 0.00 0.00 0.00 0.00 0.00 0.00 0.00 0.00 0.00 0.00 0.00 0.00 0.00 0.00 0.00 0.00 0.00 0.00 0.00
0.00 0.00 0.00 0.00 0.00 0.00 0.00 0.01 0.01 0.02 0.01 0.00 0.00 0.00 0.00 0.00 0.00 0.00 0.00 0.00 0.00 0.00 0.00 0.00 0.00 0.00 0.00 0.00 0.00 0.00 0.00 0.00 0.00 0.00 0.00 0.00 0.00 0.00 0.00 0.00 0.00 0.00 0.00 0.00 0.00 0.00 0.00 0.00 0.00
0.00 0.00 0.00 0.00 0.00 0.00 0.00 0.00 0.00 0.00 0.00 0.00 0.00 0.00 0.00 0.00 0.00 0.00 0.00 0.00 0.00 0.00 0.00 0.00 0.00 0.00 0.00 0.00 0.00 0.00 0.00 0.00 0.00 0.00 0.00 0.00 0.00 0.00 0.00 0.00 0.00 0.00 0.00 0.00 0.00 0.00 0.00 0.00 0.00
0.00 0.00 0.00 0.00 0.00 0.00 0.00 0.00 0.00 0.00 0.00 0.00 0.00 0.00 0.00 0.00 0.00 0.00 0.00 0.00 0.00 0.00 0.00 0.00 0.00 0.00 0.00 0.00 0.00 0.00 0.00 0.00 0.00 0.00 0.00 0.00 0.00 0.00 0.00 0.00 0.00 0.00 0.00 0.00 0.00 0.00 0.00 0.00 0.00
0.00 0.00 0.00 0.00 0.00 0.00 0.00 0.00 0.00 0.00 0.00 0.00 0.00 0.00 0.00 0.00 0.00 0.00 0.00 0.00 0.00 0.00 0.00 0.00 0.00 0.00 0.00 0.00 0.00 0.00 0.00 0.00 0.00 0.00 0.00 0.00 0.00 0.00 0.00 0.00 0.00 0.00 0.00 0.00 0.00 0.00 0.00 0.00 0.00
0.00 0.00 0.00 0.00 0.00 0.00 0.00 0.00 0.00 0.00 0.00 0.00 0.00 0.00 0.00 0.00 0.00 0.00 0.00 0.00 0.00 0.00 0.00 0.00 0.00 0.00 0.00 0.00 0.00 0.00 0.00 0.00 0.00 0.00 0.00 0.00 0.00 0.00 0.00 0.00 0.00 0.00 0.00 0.00 0.00 0.00 0.00 0.00 0.00
0.00 0.00 0.00 0.00 0.00 0.00 0.00 0.00 0.00 0.00 0.00 0.00 0.00 0.00 0.00 0.00 0.00 0.00 0.00 0.00 0.00 0.00 0.00 0.00 0.01 0.01 0.00 0.00 0.00 0.00 0.00 0.00 0.00 0.00 0.00 0.00 0.00 0.00 0.01 0.01 0.01 0.02 0.02 0.02 0.02 0.01 0.01 0.01 0.01
0.00 0.00 0.00 0.00 0.00 0.00 0.00 0.00 0.00 0.00 0.00 0.00 0.00 0.00 0.00 0.00 0.00 0.00 0.00 0.00 0.00 0.00 0.00 0.01 0.00 0.01 0.01 0.01 0.01 0.01 0.01 0.02 0.01 0.01 0.01 0.02 0.02 0.02 0.03 0.05 0.06 0.06 0.06 0.07 0.06 0.05 0.04 0.03 0.02
0.00 0.00 0.00 0.00 0.00 0.00 0.00 0.00 0.00 0.00 0.00 0.00 0.00 0.00 0.00 0.00 0.00 0.00 0.00 0.00 0.00 0.01 0.00 0.00 0.00 0.01 0.02 0.03 0.03 0.03 0.05 0.06 0.06 0.06 0.07 0.08 0.09 0.09 0.11 0.13 0.13 0.13 0.11 0.10 0.08 0.06 0.04 0.02 0.02
0.00 0.00 0.00 0.00 0.00 0.00 0.00 0.00 0.00 0.00 0.00 0.00 0.00 0.00 0.00 0.00 0.00 0.00 0.00 0.00 0.01 0.01 0.01 0.00 0.01 0.02 0.05 0.08 0.08 0.12 0.18 0.20 0.21 0.20 0.21 0.21 0.23 0.23 0.23 0.21 0.20 0.18 0.13 0.10 0.07 0.04 0.02 0.01 0.01
0.00 0.00 0.00 0.00 0.00 0.00 0.00 0.00 0.00 0.00 0.00 0.00 0.00 0.00 0.00 0.00 0.00 0.00 0.00 0.00 0.01 0.02 0.01 0.02 0.03 0.06 0.13 0.22 0.28 0.35 0.38 0.38 0.38 0.39 0.41 0.40 0.38 0.36 0.33 0.29 0.25 0.18 0.12 0.08 0.05 0.03 0.02 0.01 0.01
0.00 0.00 0.00 0.00 0.00 0.00 0.00 0.00 0.00 0.00 0.00 0.00 0.00 0.00 0.00 0.00 0.00 0.00 0.00 0.00 0.00 0.02 0.03 0.04 0.05 0.13 0.25 0.35 0.41 0.47 0.48 0.45 0.43 0.45 0.49 0.50 0.50 0.46 0.38 0.32 0.24 0.19 0.13 0.08 0.04 0.02 0.01 0.00 0.00
0.00 0.00 0.00 0.00 0.00 0.00 0.00 0.00 0.00 0.00 0.00 0.00 0.00 0.00 0.00 0.00 0.00 0.00 0.00 0.00 0.01 0.04 0.07 0.09 0.11 0.22 0.34 0.46 0.57 0.62 0.62 0.59 0.55 0.54 0.57 0.58 0.53 0.43 0.35 0.29 0.21 0.14 0.08 0.04 0.01 0.00 0.00 0.00 0.00
0.00 0.00 0.00 0.00 0.00 0.00 0.00 0.00 0.00 0.00 0.00 0.00 0.00 0.00 0.00 0.00 0.00 0.00 0.00 0.01 0.02 0.06 0.10 0.12 0.18 0.30 0.48 0.64 0.75 0.74 0.70 0.63 0.56 0.54 0.55 0.50 0.40 0.31 0.25 0.17 0.09 0.05 0.02 0.01 0.00 0.00 0.00 0.00 0.00
0.00 0.00 0.00 0.00 0.00 0.00 0.00 0.00 0.00 0.00 0.00 0.00 0.00 0.00 0.00 0.00 0.00 0.00 0.00 0.01 0.04 0.09 0.14 0.16 0.24 0.39 0.59 0.75 0.76 0.67 0.60 0.54 0.51 0.50 0.49 0.39 0.29 0.22 0.13 0.06 0.03 0.01 0.00 0.00 0.00 0.00 0.00 0.00 0.00
0.00 0.00 0.00 0.00 0.00 0.00 0.00 0.00 0.00 0.00 0.00 0.00 0.00 0.00 0.00 0.00 0.00 0.00 0.01 0.03 0.07 0.12 0.17 0.25 0.36 0.49 0.62 0.72 0.76 0.70 0.56 0.48 0.45 0.38 0.28 0.19 0.13 0.08 0.04 0.02 0.01 0.00 0.00 0.00 0.00 0.00 0.00 0.00 0.00
0.00 0.00 0.00 0.00 0.00 0.00 0.00 0.00 0.00 0.00 0.00 0.00 0.00 0.00 0.00 0.00 0.00 0.01 0.03 0.07 0.14 0.21 0.29 0.41 0.54 0.64 0.65 0.63 0.59 0.51 0.42 0.35 0.27 0.18 0.13 0.08 0.05 0.03 0.01 0.00 0.00 0.00 0.00 0.00 0.00 0.00 0.00 0.00 0.00
0.00 0.00 0.00 0.00 0.00 0.00 0.00 0.00 0.00 0.00 0.01 0.01 0.00 0.01 0.01 0.01 0.01 0.03 0.06 0.12 0.19 0.28 0.39 0.48 0.56 0.60 0.56 0.48 0.40 0.33 0.29 0.23 0.17 0.12 0.07 0.04 0.02 0.01 0.01 0.00 0.00 0.00 0.00 0.00 0.00 0.00 0.00 0.00 0.00
0.00 0.00 0.00 0.00 0.00 0.00 0.00 0.00 0.00 0.01 0.01 0.01 0.01 0.01 0.01 0.02 0.03 0.05 0.08 0.12 0.15 0.20 0.24 0.27 0.30 0.33 0.33 0.30 0.27 0.24 0.18 0.13 0.09 0.05 0.03 0.02 0.01 0.01 0.00 0.00 0.00 0.00 0.00 0.00 0.00 0.00 0.00 0.00 0.00
0.00 0.00 0.00 0.00 0.00 0.00 0.00 0.00 0.00 0.01 0.02 0.01 0.01 0.02 0.02 0.03 0.04 0.05 0.06 0.08 0.11 0.15 0.19 0.22 0.24 0.25 0.22 0.19 0.14 0.09 0.06 0.05 0.04 0.03 0.02 0.02 0.01 0.01 0.00 0.00 0.00 0.00 0.00 0.00 0.00 0.00 0.00 0.00 0.00
0.00 0.00 0.00 0.00 0.00 0.00 0.00 0.00 0.00 0.01 0.01 0.01 0.02 0.03 0.03 0.03 0.03 0.04 0.03 0.04 0.05 0.07 0.08 0.09 0.09 0.09 0.09 0.06 0.04 0.04 0.04 0.03 0.03 0.02 0.01 0.01 0.00 0.00 0.00 0.00 0.00 0.00 0.00 0.00 0.00 0.00 0.00 0.00 0.00
MSLP
1011.88 1012.98 1014.20 1015.32 1016.16 1016.59 1016.59 1016.22 1015.60 1014.91 1014.31 1013.90 1013.74 1013.78 1013.92 1014.06 1014.09 1013.95 1013.64 1013.25 1012.86 1012.59 1012.50 1012.63 1012.97 1013.43 1013.93 1014.36 1014.69 1014.88 1014.97 1015.03 1015.11 1015.27 1015.53 1015.88 1016.27 1016.65 1016.97 1017.18 1017.29 1017.34 1017.36 1017.39 1017.48 1017.62 1017.81 1018.01 1018.17
1012.43 1013.69 1014.98 1016.07 1016.77 1016.99 1016.73 1016.07 1015.19 1014.28 1013.53 1013.04 1012.85 1012.90 1013.09 1013.28 1013.38 1013.31 1013.08 1012.77 1012.47 1012.29 1012.30 1012.52 1012.95 1013.48 1014.03 1014.51 1014.87 1015.09 1015.21 1015.29 1015.40 1015.57 1015.84 1016.17 1016.53 1016.86 1017.12 1017.28 1017.35 1017.36 1017.36 1017.40 1017.49 1017.64 1017.83 1018.02 1018.16
1013.04 1014.40 1015.70 1016.70 1017.23 1017.23 1016.73 1015.84 1014.76 1013.70 1012.86 1012.33 1012.13 1012.21 1012.44 1012.69 1012.85 1012.84 1012.68 1012.45 1012.23 1012.13 1012.22 1012.51 1012.99 1013.56 1014.14 1014.64 1015.01 1015.25 1015.40 1015.50 1015.63 1015.81 1016.07 1016.38 1016.70 1016.98 1017.18 1017.28 1017.31 1017.31 1017.31 1017.35 1017.46 1017.63 1017.83 1018.02 1018.16
1013.67 1015.06 1016.29 1017.15 1017.50 1017.29 1016.58 1015.53 1014.33 1013.21 1012.34 1011.83 1011.67 1011.79 1012.07 1012.36 1012.55 1012.60 1012.49 1012.32 1012.17 1012.13 1012.28 1012.61 1013.11 1013.68 1014.25 1014.74 1015.11 1015.35 1015.51 1015.63 1015.77 1015.97 1016.22 1016.51 1016.79 1017.02 1017.17 1017.24 1017.25 1017.23 1017.24 1017.31 1017.46 1017.65 1017.87 1018.07 1018.20
1014.26 1015.59 1016.69 1017.38 1017.53 1017.14 1016.28 1015.13 1013.90 1012.80 1011.98 1011.54 1011.44 1011.62 1011.94 1012.27 1012.49 1012.56 1012.51 1012.38 1012.28 1012.29 1012.47 1012.81 1013.29 1013.83 1014.36 1014.80 1015.13 1015.36 1015.51 1015.65 1015.81 1016.03 1016.29 1016.57 1016.84 1017.04 1017.16 1017.20 1017.20 1017.19 1017.22 1017.33 1017.50 1017.73 1017.97 1018.17 1018.31
1014.75 1015.95 1016.86 1017.33 1017.29 1016.74 1015.80 1014.63 1013.45 1012.44 1011.73 1011.39 1011.39 1011.63 1011.99 1012.33 1012.57 1012.67 1012.64 1012.56 1012.51 1012.55 1012.73 1013.06 1013.50 1013.97 1014.42 1014.80 1015.08 1015.27 1015.43 1015.58 1015.77 1016.02 1016.30 1016.59 1016.85 1017.04 1017.15 1017.19 1017.19 1017.20 1017.26 1017.40 1017.60 1017.86 1018.11 1018.32 1018.45
1015.09 1016.09 1016.76 1017.00 1016.77 1016.10 1015.12 1014.00 1012.92 1012.05 1011.50 1011.29 1011.38 1011.68 1012.07 1012.43 1012.68 1012.79 1012.80 1012.76 1012.74 1012.81 1013.00 1013.30 1013.68 1014.08 1014.44 1014.74 1014.96 1015.12 1015.27 1015.45 1015.67 1015.96 1016.28 1016.60 1016.87 1017.06 1017.18 1017.22 1017.24 1017.26 1017.35 1017.51 1017.73 1018.00 1018.26 1018.46 1018.58
1015.24 1016.00 1016.41 1016.42 1016.00 1015.25 1014.28 1013.24 1012.31 1011.61 1011.22 1011.14 1011.33 1011.68 1012.08 1012.44 1012.69 1012.82 1012.86 1012.86 1012.89 1012.99 1013.19 1013.46 1013.79 1014.12 1014.40 1014.63 1014.80 1014.94 1015.09 1015.29 1015.56 1015.89 1016.25 1016.60 1016.89 1017.10 1017.23 1017.28 1017.30 1017.35 1017.45 1017.61 1017.85 1018.11 1018.36 1018.55 1018.65
1015.21 1015.71 1015.86 1015.64 1015.08 1014.27 1013.33 1012.40 1011.62 1011.10 1010.86 1010.90 1011.16 1011.53 1011.94 1012.29 1012.54 1012.69 1012.77 1012.82 1012.90 1013.05 1013.26 1013.53 1013.82 1014.09 1014.32 1014.49 1014.63 1014.76 1014.92 1015.16 1015.46 1015.84 1016.23 1016.61 1016.92 1017.15 1017.28 1017.34 1017.38 1017.43 1017.53 1017.69 1017.92 1018.16 1018.39 1018.56 1018.65
1015.00 1015.26 1015.17 1014.76 1014.08 1013.25 1012.36 1011.56 1010.94 1010.56 1010.46 1010.58 1010.87 1011.25 1011.64 1011.97 1012.22 1012.39 1012.51 1012.62 1012.76 1012.96 1013.20 1013.48 1013.75 1014.00 1014.19 1014.34 1014.47 1014.61 1014.80 1015.06 1015.41 1015.81 1016.23 1016.63 1016.95 1017.19 1017.33 1017.40 1017.44 1017.49 1017.59 1017.75 1017.95 1018.17 1018.38 1018.53 1018.61
1014.69 1014.73 1014.44 1013.89 1013.14 1012.32 1011.51 1010.82 1010.34 1010.09 1010.07 1010.24 1010.53 1010.88 1011.23 1011.53 1011.77 1011.95 1012.11 1012.28 1012.48 1012.73 1013.02 1013.32 1013.60 1013.84 1014.04 1014.19 1014.33 1014.50 1014.72 1015.02 1015.39 1015.81 1016.24 1016.64 1016.97 1017.21 1017.36 1017.44 1017.49 1017.55 1017.65 1017.79 1017.98 1018.19 1018.37 1018.51 1018.58
1014.33 1014.20 1013.77 1013.13 1012.37 1011.58 1010.86 1010.29 1009.91 1009.75 1009.77 1009.95 1010.21 1010.51 1010.80 1011.06 1011.27 1011.46 1011.65 1011.87 1012.12 1012.41 1012.74 1013.06 1013.37 1013.63 1013.85 1014.04 1014.22 1014.42 1014.68 1015.00 1015.39 1015.82 1016.25 1016.64 1016.97 1017.21 1017.37 1017.47 1017.54 1017.63 1017.74 1017.89 1018.07 1018.26 1018.44 1018.57 1018.64
1013.99 1013.74 1013.24 1012.57 1011.83 1011.11 1010.49 1010.02 1009.72 1009.61 1009.64 1009.78 1009.98 1010.20 1010.42 1010.62 1010.80 1010.98 1011.18 1011.42 1011.70 1012.03 1012.38 1012.73 1013.06 1013.36 1013.62 1013.86 1014.10 1014.36 1014.65 1015.00 1015.40 1015.82 1016.23 1016.62 1016.94 1017.19 1017.38 1017.52 1017.64 1017.76 1017.90 1018.07 1018.26 1018.45 1018.62 1018.75 1018.84
1013.73 1013.42 1012.90 1012.26 1011.58 1010.96 1010.43 1010.04 1009.80 1009.69 1009.69 1009.76 1009.88 1010.01 1010.14 1010.27 1010.40 1010.56 1010.75 1010.98 1011.26 1011.59 1011.94 1012.31 1012.66 1013.01 1013.32 1013.63 1013.94 1014.25 1014.60 1014.97 1015.37 1015.79 1016.19 1016.56 1016.88 1017.16 1017.39 1017.59 1017.78 1017.96 1018.16 1018.37 1018.58 1018.78 1018.96 1019.09 1019.19
1013.59 1013.26 1012.76 1012.19 1011.61 1011.08 1010.64 1010.32 1010.09 1009.95 1009.88 1009.86 1009.87 1009.89 1009.93 1009.99 1010.07 1010.18 1010.33 1010.54 1010.79 1011.09 1011.43 1011.80 1012.17 1012.56 1012.94 1013.32 1013.71 1014.10 1014.50 1014.90 1015.31 1015.71 1016.10 1016.47 1016.81 1017.13 1017.43 1017.70 1017.97 1018.24 1018.50 1018.76 1019.00 1019.22 1019.41 1019.55 1019.67
1013.57 1013.25 1012.81 1012.32 1011.85 1011.43 1011.06 1010.76 1010.52 1010.32 1010.15 1010.01 1009.90 1009.81 1009.75 1009.73 1009.74 1009.81 1009.92 1010.07 1010.28 1010.53 1010.84 1011.19 1011.59 1012.02 1012.47 1012.94 1013.41 1013.88 1014.34 1014.78 1015.20 1015.60 1015.99 1016.37 1016.74 1017.11 1017.48 1017.85 1018.21 1018.56 1018.90 1019.21 1019.49 1019.72 1019.92 1020.07 1020.19
1013.63 1013.35 1012.99 1012.62 1012.26 1011.92 1011.60 1011.30 1011.01 1010.71 1010.42 1010.14 1009.89 1009.68 1009.52 1009.43 1009.38 1009.39 1009.45 1009.55 1009.71 1009.91 1010.18 1010.52 1010.93 1011.40 1011.93 1012.49 1013.06 1013.61 1014.14 1014.62 1015.07 1015.49 1015.89 1016.28 1016.69 1017.11 1017.56 1018.01 1018.47 1018.91 1019.31 1019.66 1019.96 1020.21 1020.40 1020.55 1020.68
1013.73 1013.52 1013.27 1013.01 1012.76 1012.49 1012.20 1011.87 1011.49 1011.06 1010.61 1010.18 1009.78 1009.46 1009.21 1009.04 1008.95 1008.92 1008.93 1008.98 1009.08 1009.24 1009.48 1009.81 1010.24 1010.77 1011.37 1012.02 1012.69 1013.34 1013.94 1014.48 1014.96 1015.40 1015.82 1016.24 1016.68 1017.16 1017.67 1018.20 1018.73 1019.23 1019.68 1020.06 1020.37 1020.61 1020.80 1020.95 1021.08
1013.82 1013.70 1013.57 1013.44 1013.30 1013.10 1012.81 1012.42 1011.92 1011.34 1010.73 1010.12 1009.58 1009.14 1008.80 1008.58 1008.45 1008.39 1008.37 1008.40 1008.47 1008.60 1008.81 1009.14 1009.60 1010.18 1010.87 1011.61 1012.38 1013.12 1013.79 1014.39 1014.91 1015.38 1015.81 1016.26 1016.73 1017.25 1017.81 1018.40 1018.98 1019.51 1019.99 1020.38 1020.68 1020.91 1021.08 1021.22 1021.35
1013.84 1013.85 1013.87 1013.88 1013.85 1013.71 1013.41 1012.95 1012.33 1011.59 1010.79 1010.02 1009.33 1008.78 1008.36 1008.10 1007.95 1007.87 1007.85 1007.87 1007.93 1008.05 1008.26 1008.61 1009.10 1009.74 1010.49 1011.33 1012.18 1013.00 1013.75 1014.40 1014.96 1015.45 1015.91 1016.37 1016.87 1017.42 1018.01 1018.62 1019.22 1019.77 1020.24 1020.62 1020.90 1021.11 1021.26 1021.38 1021.51
1013.76 1013.92 1014.12 1014.30 1014.39 1014.31 1014.01 1013.48 1012.74 1011.84 1010.88 1009.94 1009.12 1008.47 1007.99 1007.70 1007.54 1007.48 1007.47 1007.50 1007.57 1007.70 1007.94 1008.30 1008.83 1009.52 1010.33 1011.23 1012.15 1013.04 1013.84 1014.54 1015.13 1015.65 1016.12 1016.60 1017.11 1017.67 1018.27 1018.88 1019.47 1020.01 1020.46 1020.81 1021.06 1021.23 1021.36 1021.47 1021.59
1013.56 1013.91 1014.31 1014.66 1014.88 1014.88 1014.60 1014.02 1013.18 1012.14 1011.04 1009.98 1009.05 1008.32 1007.80 1007.49 1007.35 1007.31 1007.34 1007.40 1007.50 1007.66 1007.91 1008.30 1008.85 1009.57 1010.42 1011.36 1012.32 1013.24 1014.08 1014.81 1015.43 1015.96 1016.44 1016.93 1017.44 1017.99 1018.58 1019.18 1019.75 1020.26 1020.68 1020.99 1021.21 1021.35 1021.45 1021.55 1021.67
1013.25 1013.81 1014.41 1014.96 1015.32 1015.41 1015.16 1014.56 1013.66 1012.54 1011.34 1010.18 1009.18 1008.41 1007.88 1007.58 1007.46 1007.46 1007.53 1007.64 1007.77 1007.95 1008.23 1008.63 1009.19 1009.92 1010.77 1011.72 1012.68 1013.62 1014.46 1015.20 1015.82 1016.36 1016.85 1017.33 1017.84 1018.38 1018.95 1019.53 1020.07 1020.54 1020.92 1021.20 1021.38 1021.50 1021.58 1021.67 1021.77
1012.86 1013.61 1014.42 1015.14 1015.66 1015.85 1015.65 1015.07 1014.15 1012.99 1011.75 1010.56 1009.54 1008.76 1008.25 1007.98 1007.90 1007.96 1008.08 1008.22 1008.39 1008.60 1008.88 1009.28 1009.83 1010.54 1011.36 1012.28 1013.22 1014.13 1014.95 1015.67 1016.29 1016.82 1017.30 1017.78 1018.28 1018.80 1019.35 1019.90 1020.41 1020.85 1021.19 1021.44 1021.60 1021.70 1021.77 1021.84 1021.93
1012.43 1013.35 1014.32 1015.20 1015.84 1016.13 1016.01 1015.47 1014.58 1013.45 1012.24 1011.08 1010.09 1009.35 1008.89 1008.68 1008.66 1008.77 1008.94 1009.13 1009.33 1009.55 1009.83 1010.21 1010.73 1011.38 1012.15 1013.00 1013.88 1014.73 1015.52 1016.20 1016.79 1017.31 1017.78 1018.24 1018.73 1019.24 1019.76 1020.28 1020.76 1021.17 1021.49 1021.72 1021.86 1021.95 1022.00 1022.06 1022.14
1012.01 1013.05 1014.13 1015.12 1015.85 1016.22 1016.17 1015.70 1014.89 1013.84 1012.70 1011.63 1010.74 1010.10 1009.72 1009.60 1009.65 1009.83 1010.05 1010.28 1010.49 1010.72 1010.99 1011.33 1011.79 1012.37 1013.06 1013.83 1014.63 1015.40 1016.12 1016.75 1017.31 1017.80 1018.25 1018.70 1019.17 1019.66 1020.16 1020.65 1021.10 1021.49 1021.79 1022.00 1022.13 1022.21 1022.26 1022.31 1022.36
1011.66 1012.74 1013.87 1014.88 1015.66 1016.08 1016.09 1015.70 1014.99 1014.06 1013.07 1012.15 1011.40 1010.90 1010.65 1010.63 1010.78 1011.02 1011.29 1011.55 1011.79 1012.01 1012.25 1012.55 1012.94 1013.44 1014.04 1014.71 1015.41 1016.10 1016.74 1017.32 1017.83 1018.28 1018.72 1019.15 1019.59 1020.06 1020.53 1020.99 1021.42 1021.78 1022.06 1022.26 1022.38 1022.46 1022.50 1022.53 1022.57
1011.42 1012.47 1013.55 1014.53 1015.28 1015.71 1015.76 1015.45 1014.86 1014.09 1013.28 1012.55 1011.99 1011.67 1011.57 1011.68 1011.93 1012.24 1012.56 1012.85 1013.10 1013.31 1013.52 1013.77 1014.10 1014.52 1015.02 1015.59 1016.20 1016.80 1017.37 1017.88 1018.35 1018.77 1019.18 1019.58 1020.00 1020.44 1020.88 1021.31 1021.70 1022.03 1022.29 1022.48 1022.60 1022.67 1022.70 1022.72 1022.73
1011.33 1012.27 1013.24 1014.11 1014.78 1015.16 1015.22 1014.98 1014.51 1013.92 1013.31 1012.80 1012.47 1012.34 1012.42 1012.66 1013.02 1013.40 1013.77 1014.09 1014.34 1014.54 1014.72 1014.93 1015.20 1015.55 1015.97 1016.45 1016.97 1017.49 1018.00 1018.46 1018.88 1019.28 1019.65 1020.04 1020.42 1020.83 1021.23 1021.62 1021.97 1022.27 1022.50 1022.66 1022.76 1022.82 1022.84 1022.85 1022.83
1011.40 1012.18 1012.98 1013.69 1014.23 1014.52 1014.56 1014.38 1014.03 1013.62 1013.23 1012.95 1012.84 1012.92 1013.17 1013.55 1014.00 1014.46 1014.87 1015.20 1015.46 1015.65 1015.81 1015.99 1016.21 1016.49 1016.85 1017.27 1017.72 1018.18 1018.63 1019.05 1019.44 1019.81 1020.16 1020.52 1020.88 1021.24 1021.60 1021.94 1022.24 1022.50 1022.69 1022.82 1022.90 1022.94 1022.94 1022.92 1022.88
Thickness
5775 5775 5773 5765 5745 5723 5727 5745 5761 5772 5779 5789 5790 5783 5772 5768 5762 5761 5781 5789 5787 5781 5776 5772 5768 5765 5763 5760 5758 5757 5756 5754 5753 5752 5751 5749 5748 5747 5746 5744 5743 5743 5742 5742 5741 5741 5741 5740 5740
5773 5771 5764 5749 5725 5713 5724 5749 5762 5775 5787 5792 5790 5785 5776 5773 5778 5778 5782 5785 5785 5780 5775 5771 5767 5764 5761 5758 5755 5754 5752 5751 5749 5748 5747 5745 5744 5743 5742 5741 5740 5739 5739 5738 5738 5737 5737 5737 5736
5771 5768 5749 5731 5718 5717 5738 5763 5772 5786 5793 5792 5785 5785 5780 5776 5779 5780 5784 5785 5782 5778 5774 5770 5767 5763 5760 5756 5753 5751 5749 5747 5745 5744 5743 5741 5740 5740 5739 5738 5738 5737 5736 5735 5734 5734 5733 5733 5733
5764 5751 5737 5722 5721 5731 5750 5771 5781 5785 5791 5793 5785 5776 5782 5790 5788 5788 5787 5785 5781 5777 5774 5771 5767 5763 5760 5756 5753 5750 5747 5744 5742 5741 5739 5738 5738 5737 5736 5736 5735 5734 5733 5732 5731 5730 5729 5729 5729
5754 5736 5721 5711 5724 5742 5758 5774 5783 5782 5785 5788 5783 5771 5775 5791 5795 5792 5789 5785 5781 5778 5774 5771 5767 5763 5759 5756 5753 5750 5747 5744 5742 5740 5738 5737 5736 5735 5734 5733 5732 5731 5730 5729 5728 5727 5726 5726 5726
5735 5723 5705 5705 5725 5748 5763 5778 5783 5782 5784 5786 5780 5770 5775 5790 5791 5790 5789 5785 5782 5778 5773 5770 5766 5763 5759 5756 5752 5749 5746 5744 5742 5739 5737 5736 5734 5733 5732 5731 5730 5729 5728 5727 5725 5724 5723 5723 5723
5728 5715 5709 5719 5731 5747 5768 5781 5781 5781 5781 5784 5786 5769 5774 5786 5792 5792 5788 5784 5780 5776 5772 5768 5765 5762 5759 5755 5752 5749 5746 5743 5741 5738 5736 5735 5733 5732 5730 5729 5728 5727 5725 5724 5722 5720 5719 5719 5719
5738 5722 5720 5722 5734 5750 5774 5783 5788 5787 5785 5795 5791 5772 5774 5789 5794 5791 5786 5781 5778 5775 5772 5768 5765 5762 5758 5755 5752 5749 5746 5742 5740 5738 5735 5733 5732 5730 5728 5727 5726 5724 5722 5720 5718 5717 5716 5715 5715
5741 5716 5712 5727 5738 5756 5774 5777 5787 5797 5793 5793 5795 5792 5796 5798 5793 5786 5780 5776 5773 5772 5770 5768 5765 5762 5759 5755 5752 5749 5745 5742 5739 5736 5734 5732 5730 5728 5726 5724 5722 5721 5719 5717 5715 5713 5712 5711 5711
5731 5713 5723 5743 5755 5765 5772 5777 5785 5788 5785 5787 5790 5796 5800 5795 5790 5784 5779 5775 5773 5771 5770 5768 5766 5763 5760 5756 5753 5749 5745 5741 5738 5736 5733 5730 5728 5726 5724 5721 5719 5717 5715 5714 5712 5711 5709 5708 5707
5733 5726 5738 5752 5763 5769 5771 5778 5789 5785 5778 5787 5791 5793 5796 5792 5788 5786 5783 5780 5778 5776 5772 5770 5768 5764 5761 5758 5753 5749 5745 5741 5738 5734 5731 5728 5725 5723 5721 5719 5716 5714 5712 5710 5709 5707 5706 5704 5703
5734 5739 5747 5756 5767 5767 5771 5779 5784 5788 5796 5808 5806 5803 5799 5794 5791 5790 5787 5784 5781 5777 5774 5773 5770 5766 5762 5759 5755 5750 5746 5742 5737 5733 5730 5726 5723 5720 5718 5715 5713 5711 5709 5707 5705 5703 5701 5700 5699
5738 5743 5753 5759 5762 5766 5771 5775 5783 5792 5806 5809 5805 5799 5798 5798 5796 5795 5793 5788 5784 5779 5776 5774 5771 5768 5764 5759 5756 5751 5747 5743 5739 5734 5729 5725 5721 5718 5715 5712 5710 5708 5705 5703 5700 5698 5697 5695 5693
5742 5745 5750 5755 5760 5767 5770 5776 5781 5795 5804 5802 5800 5797 5798 5798 5797 5794 5791 5788 5785 5783 5780 5777 5773 5769 5765 5760 5755 5751 5747 5743 5738 5733 5729 5724 5720 5716 5713 5709 5706 5704 5701 5698 5695 5693 5690 5688 5685
5741 5740 5744 5754 5761 5768 5770 5768 5778 5796 5798 5795 5796 5797 5796 5796 5796 5797 5797 5794 5789 5785 5782 5778 5774 5769 5764 5759 5754 5749 5744 5739 5734 5730 5726 5721 5717 5713 5710 5706 5702 5698 5696 5692 5689 5686 5683 5680 5677
5734 5730 5727 5745 5757 5764 5761 5753 5778 5792 5789 5786 5789 5792 5792 5794 5797 5800 5799 5796 5792 5787 5782 5778 5774 5767 5762 5757 5752 5746 5740 5735 5730 5725 5722 5717 5712 5708 5704 5699 5695 5691 5688 5685 5681 5677 5673 5670 5667
5711 5711 5721 5737 5751 5754 5753 5752 5772 5783 5781 5780 5783 5787 5789 5789 5793 5798 5799 5797 5793 5789 5782 5775 5772 5766 5759 5754 5748 5742 5736 5730 5724 5720 5715 5711 5706 5701 5696 5690 5684 5681 5677 5674 5671 5666 5664 5659 5656
5701 5710 5718 5726 5741 5743 5743 5749 5765 5774 5774 5776 5779 5783 5784 5787 5796 5801 5799 5797 5793 5788 5782 5775 5768 5763 5756 5749 5742 5736 5729 5723 5717 5712 5707 5702 5697 5692 5686 5680 5674 5671 5666 5662 5659 5656 5652 5649 5646
5710 5710 5711 5721 5737 5738 5738 5742 5757 5767 5768 5768 5771 5775 5780 5790 5801 5798 5796 5794 5790 5785 5780 5773 5766 5760 5753 5744 5736 5727 5719 5712 5705 5701 5697 5693 5687 5682 5676 5671 5665 5660 5656 5652 5649 5646 5642 5638 5635
5702 5702 5707 5719 5732 5735 5732 5735 5753 5764 5765 5769 5772 5773 5779 5786 5788 5790 5791 5790 5788 5784 5778 5771 5764 5757 5750 5742 5732 5721 5709 5700 5694 5689 5685 5681 5676 5672 5667 5661 5655 5650 5646 5642 5639 5637 5632 5627 5624
5694 5696 5704 5708 5715 5721 5722 5720 5740 5760 5763 5766 5769 5773 5776 5781 5785 5787 5787 5787 5784 5781 5777 5770 5762 5753 5744 5735 5723 5711 5699 5689 5680 5677 5674 5670 5666 5662 5657 5652 5647 5641 5637 5632 5629 5626 5623 5617 5611
5685 5701 5702 5703 5696 5688 5703 5686 5721 5742 5746 5757 5760 5761 5767 5776 5782 5784 5783 5781 5779 5777 5772 5764 5754 5744 5735 5726 5717 5707 5696 5682 5673 5668 5664 5659 5656 5652 5647 5642 5637 5632 5627 5623 5619 5615 5612 5608 5602
5694 5703 5699 5697 5690 5682 5687 5682 5701 5724 5733 5745 5750 5752 5758 5767 5774 5777 5776 5773 5769 5766 5760 5753 5742 5732 5723 5714 5705 5695 5686 5676 5665 5658 5653 5649 5645 5641 5637 5634 5629 5622 5617 5613 5609 5604 5600 5596 5591
5698 5693 5682 5671 5668 5665 5682 5675 5688 5705 5718 5729 5738 5743 5749 5757 5762 5762 5761 5760 5756 5752 5746 5739 5729 5719 5710 5701 5693 5684 5676 5665 5657 5650 5644 5639 5634 5630 5626 5623 5618 5612 5607 5602 5598 5593 5588 5583 5578
5688 5667 5649 5654 5646 5656 5685 5681 5685 5708 5717 5720 5724 5731 5739 5745 5747 5747 5745 5743 5740 5736 5731 5724 5717 5706 5698 5689 5679 5672 5665 5655 5648 5641 5635 5629 5625 5620 5615 5612 5606 5601 5596 5591 5585 5580 5576 5570 5565
5678 5669 5649 5644 5647 5659 5678 5674 5688 5707 5714 5717 5720 5724 5729 5732 5733 5732 5730 5727 5723 5719 5714 5709 5702 5694 5687 5681 5670 5659 5650 5644 5638 5631 5626 5621 5617 5611 5606 5601 5595 5589 5584 5579 5573 5568 5563 5557 5551
5677 5669 5679 5659 5657 5655 5662 5676 5688 5701 5706 5709 5710 5713 5715 5717 5717 5715 5712 5709 5706 5702 5698 5695 5688 5681 5675 5668 5659 5649 5640 5633 5627 5621 5616 5611 5605 5601 5595 5589 5583 5577 5572 5566 5561 5555 5549 5543 5536
5691 5679 5658 5650 5641 5643 5662 5667 5669 5683 5691 5697 5698 5700 5701 5702 5701 5699 5696 5693 5689 5686 5682 5677 5671 5666 5659 5652 5644 5636 5629 5623 5618 5612 5604 5598 5593 5587 5581 5575 5569 5563 5557 5552 5546 5539 5533 5526 5520
5677 5673 5664 5652 5655 5647 5645 5656 5675 5680 5687 5688 5687 5687 5687 5686 5685 5682 5679 5676 5673 5670 5666 5661 5656 5650 5643 5635 5629 5622 5616 5610 5604 5598 5591 5585 5579 5573 5567 5560 5554 5548 5542 5536 5529 5523 5516 5509 5503
5681 5674 5662 5655 5652 5652 5650 5652 5675 5680 5682 5681 5677 5675 5673 5671 5669 5667 5664 5661 5658 5654 5649 5645 5639 5634 5627 5620 5614 5608 5602 5596 5589 5582 5576 5569 5563 5557 5551 5545 5539 5532 5526 5519 5513 5506 5499 5493 5487